Date,TemperatureHighF,TemperatureAvgF,TemperatureLowF,DewpointHighF,DewpointAvgF,DewpointLowF,HumidityHigh,HumidityAvg,HumidityLow,PressureMaxIn,PressureMinIn,WindSpeedMaxMPH,WindSpeedAvgMPH,GustSpeedMaxMPH,PrecipitationSumIn
2013-2-1,17,14,11,14,10,6,91,87,79,30.37,29.88,18,6,18,0.00
2013-2-2,20,15,10,18,12,5,92,87,80,30.37,30.05,11,2,11,0.00
2013-2-3,20,17,16,17,14,11,93,86,72,30.06,29.92,13,4,15,0.00
2013-2-4,23,19,14,20,15,9,94,87,79,30.11,29.96,13,2,14,0.02
2013-2-5,28,22,18,22,19,17,94,86,68,30.00,29.91,10,1,10,0.01
2013-2-6,29,23,15,24,16,11,93,76,52,30.41,30.00,16,2,16,0.05
2013-2-7,41,29,16,27,20,11,81,69,53,30.39,29.97,12,3,15,0.06
2013-2-8,35,28,19,34,25,16,96,89,79,30.28,29.80,19,6,21,0.23
2013-2-9,31,22,17,19,17,14,91,81,57,30.50,30.28,17,2,17,0.03
2013-2-10,43,31,19,31,19,13,83,61,40,30.41,29.90,24,4,24,0.00
2013-2-11,50,39,32,43,32,24,96,77,57,29.92,29.68,29,8,31,0.00
2013-2-12,32,30,26,25,24,22,87,76,73,30.05,29.92,17,7,25,0.00
2013-2-13,27,25,23,23,22,21,91,88,84,29.89,29.82,5,1,6,0.00
2013-2-16,25,21,18,17,15,12,91,80,59,30.06,30.02,5,1,7,0.02
2013-2-17,19,15,5,17,10,2,91,81,63,30.33,30.01,14,3,17,0.00
2013-2-18,38,23,4,29,14,1,89,70,53,30.35,29.86,23,4,24,0.03
2013-2-19,43,30,15,37,26,12,93,86,65,29.97,29.64,23,8,29,0.23
2013-2-20,20,17,14,14,12,9,91,82,65,30.27,29.97,19,6,19,0.00
2013-2-21,20,17,14,16,13,10,90,83,75,30.45,30.26,13,3,15,0.00
2013-2-22,34,26,15,33,24,12,97,90,78,30.40,30.04,19,4,19,0.03
2013-2-23,34,31,27,32,27,23,96,83,71,30.05,29.93,11,2,13,0.02
2013-2-24,30,27,24,25,22,20,93,83,72,30.21,29.93,13,4,15,0.00
2013-2-25,38,28,17,27,22,15,95,79,53,30.30,30.15,8,2,10,0.01
2013-2-26,37,32,24,33,27,20,95,84,66,30.18,29.61,22,5,23,0.66
2013-2-27,40,36,32,37,34,30,97,93,85,29.68,29.57,13,4,18,0.15
2013-2-28,33,31,28,31,29,26,95,92,88,29.91,29.62,15,4,15,0.05